This is the latest recevied weather packets stored in our database for station/object SP6KBU-12. If no packets are shown the sender has not sent any weather packets the latest 10 day(s).
| Time | Temp. | Humidity | Pressure | Rain* | Wind** | Luminosity | Snow |
|---|---|---|---|---|---|---|---|
| 1777883455 | 24.44° C | 31% | 1015.9 hPa | - | - | - | - |
| 1777882555 | 22.78° C | 32% | 1016 hPa | - | - | - | - |
| 1777881658 | 21.67° C | 33% | 1015.8 hPa | - | - | - | - |
| 1777880754 | 19.44° C | 34% | 1015.9 hPa | - | - | - | - |
| 1777879854 | 18.89° C | 34% | 1016 hPa | - | - | - | - |
| 1777878954 | 19.44° C | 36% | 1016.1 hPa | - | - | - | - |
| 1777878623 | 17.78° C | 37% | 1015.7 hPa | - | - | - | - |
| 1777878053 | 17.78° C | 37% | 1015.7 hPa | - | - | - | - |
| 1777877646 | 17.78° C | 37% | 1015.9 hPa | - | - | - | - |
| 1777877154 | 17.78° C | 37% | 1015.9 hPa | - | - | - | - |
| 1777876346 | 17.78° C | 37% | 1015.9 hPa | - | - | - | - |
| 1777876309 | 17.78° C | 37% | 1015.9 hPa | - | - | - | - |
| 1777876253 | 17.78° C | 37% | 1015.9 hPa | - | - | - | - |
| 1777875679 | 16.67° C | 38% | 1015.9 hPa | - | - | - | - |
| 1777875353 | 16.67° C | 38% | 1015.9 hPa | - | - | - | - |
| 1777874493 | 16.67° C | 38% | 1015.8 hPa | - | - | - | - |
| 1777874453 | 16.67° C | 38% | 1015.8 hPa | - | - | - | - |
| 1777873714 | 16.11° C | 38% | 1015.6 hPa | - | - | - | - |
| 1777873552 | 16.11° C | 38% | 1015.6 hPa | - | - | - | - |
| 1777872653 | 15.56° C | 38% | 1015.6 hPa | - | - | - | - |
| 1777871753 | 15.56° C | 38% | 1015.6 hPa | - | - | - | - |
| 1777870852 | 15° C | 39% | 1015.7 hPa | - | - | - | - |
| 1777869952 | 14.44° C | 39% | 1015.7 hPa | - | - | - | - |
| 1777869052 | 14.44° C | 39% | 1015.5 hPa | - | - | - | - |
| 1777868151 | 15° C | 39% | 1015.1 hPa | - | - | - | - |
* Rain since midnight (hover to see other rain measurements)
** Current wind speed in m/s (hover to see current wind gust speed)